| time (UTC) | temp F | wind direction | speed knots | gust knots | rain 1hr in | rain 24hr in | rain mn in | humidity % | barometer mb |
| 20260506162518 | 60 | 199 | 1.7 | 7.0 | 0.00 | 0.00 | 0.00 | 88 | 1010.3 |
| 20260506162009 | 61 | 200 | 2.6 | 7.0 | 0.00 | 0.00 | 0.00 | 87 | 1010.4 |
| 20260506161507 | 60 | 229 | 1.7 | 3.5 | 0.00 | 0.00 | 0.00 | 87 | 1010.3 |
| 20260506161004 | 60 | 252 | 4.3 | 7.0 | 0.00 | 0.00 | 0.00 | 86 | 1010.3 |
| 20260506160502 | 60 | 329 | 2.6 | 7.8 | 0.00 | 0.00 | 0.00 | 87 | 1010.4 |
| 20260506155959 | 60 | 269 | 2.6 | 7.0 | 0.00 | 0.00 | 0.00 | 87 | 1010.6 |
| 20260506155456 | 60 | 244 | 4.3 | 11.3 | 0.00 | 0.00 | 0.00 | 86 | 1010.5 |
| 20260506153623 | 61 | 172 | 5.2 | 7.8 | 0.00 | 0.00 | 0.00 | 85 | 1010.7 |
| 20260506153121 | 61 | 247 | 6.1 | 9.6 | 0.00 | 0.00 | 0.00 | 84 | 1010.5 |
| 20260506152617 | 62 | 246 | 2.6 | 7.8 | 0.00 | 0.00 | 0.00 | 84 | 1010.8 |
| 20260506152115 | 61 | 174 | 2.6 | 3.5 | 0.00 | 0.00 | 0.00 | 84 | 1010.7 |
| 20260506151613 | 61 | 231 | 3.5 | 6.1 | 0.00 | 0.00 | 0.00 | 84 | 1010.9 |
| 20260506151110 | 61 | 191 | 1.7 | 3.5 | 0.00 | 0.00 | 0.00 | 85 | 1010.6 |
| 20260506150606 | 61 | 254 | 3.5 | 7.0 | 0.00 | 0.00 | 0.00 | 85 | 1010.6 |
| 20260506150103 | 61 | 256 | 3.5 | 7.0 | 0.00 | 0.00 | 0.00 | 85 | 1010.5 |
| 20260506145600 | 60 | 203 | 1.7 | 3.5 | 0.00 | 0.00 | 0.00 | 86 | 1010.5 |
| 20260506145057 | 60 | 226 | 3.5 | 9.6 | 0.00 | 0.00 | 0.00 | 86 | 1010.6 |
| 20260506144554 | 60 | 175 | 4.3 | 8.7 | 0.00 | 0.00 | 0.00 | 85 | 1010.5 |
| 20260506144051 | 61 | 223 | 2.6 | 8.7 | 0.00 | 0.00 | 0.00 | 85 | 1010.5 |
| 20260506143549 | 61 | 225 | 2.6 | 11.3 | 0.00 | 0.00 | 0.00 | 85 | 1010.7 |
| 20260506143047 | 61 | 258 | 1.7 | 7.0 | 0.00 | 0.00 | 0.00 | 85 | 1010.8 |
| 20260506142544 | 61 | 214 | 2.6 | 7.0 | 0.00 | 0.00 | 0.00 | 85 | 1010.7 |
| 20260506142043 | 61 | 192 | 7.8 | 11.3 | 0.00 | 0.00 | 0.00 | 84 | 1010.8 |
| 20260506141540 | 61 | 227 | 7.8 | 7.8 | 0.00 | 0.00 | 0.00 | 84 | 1010.8 |
| 20260506141038 | 62 | 235 | 3.5 | 7.0 | 0.00 | 0.00 | 0.00 | 83 | 1010.8 |
| 20260506140535 | 62 | 213 | 4.3 | 9.6 | 0.00 | 0.00 | 0.00 | 84 | 1010.8 |
| 20260506140033 | 62 | 193 | 5.2 | 9.6 | 0.00 | 0.00 | 0.00 | 83 | 1010.8 |
| 20260506135529 | 61 | 156 | 5.2 | 7.8 | 0.00 | 0.00 | 0.00 | 84 | 1011.0 |
| 20260506135025 | 61 | 205 | 1.7 | 5.2 | 0.00 | 0.00 | 0.00 | 85 | 1011.0 |
| 20260506134522 | 61 | 223 | 7.0 | 12.2 | 0.00 | 0.00 | 0.00 | 85 | 1011.1 |
| 20260506134018 | 61 | 196 | 0.9 | 7.0 | 0.00 | 0.00 | 0.00 | 86 | 1011.0 |
| 20260506133515 | 61 | 177 | 4.3 | 8.7 | 0.00 | 0.00 | 0.00 | 85 | 1011.0 |
| 20260506133012 | 61 | 226 | 3.5 | 6.1 | 0.00 | 0.00 | 0.00 | 85 | 1010.9 |
| 20260506132509 | 61 | 144 | 2.6 | 12.2 | 0.00 | 0.00 | 0.00 | 85 | 1010.9 |
| 20260506132007 | 60 | 301 | 3.5 | 8.7 | 0.00 | 0.00 | 0.00 | 87 | 1010.9 |
| 20260506131504 | 60 | 297 | 3.5 | 8.7 | 0.00 | 0.00 | 0.00 | 87 | 1010.8 |
| 20260506131000 | 60 | 175 | 4.3 | 8.7 | 0.00 | 0.00 | 0.00 | 87 | 1010.7 |
| 20260506130456 | 60 | 213 | 5.2 | 9.6 | 0.00 | 0.00 | 0.00 | 87 | 1010.8 |
| 20260506125954 | 60 | 196 | 3.5 | 6.1 | 0.00 | 0.00 | 0.00 | 87 | 1010.9 |
| 20260506125453 | 60 | 261 | 5.2 | 8.7 | 0.00 | 0.00 | 0.00 | 86 | 1010.8 |
| 20260506124950 | 61 | 200 | 3.5 | 6.1 | 0.00 | 0.00 | 0.00 | 86 | 1010.8 |
| 20260506124447 | 61 | 194 | 4.3 | 7.8 | 0.00 | 0.00 | 0.00 | 86 | 1010.7 |
| 20260506123945 | 60 | 172 | 2.6 | 7.0 | 0.00 | 0.00 | 0.00 | 86 | 1010.7 |
| 20260506123443 | 60 | 219 | 1.7 | 6.1 | 0.00 | 0.00 | 0.00 | 86 | 1011.1 |
| 20260506122940 | 61 | 248 | 0.9 | 7.0 | 0.00 | 0.00 | 0.00 | 86 | 1011.0 |
| 20260506122437 | 61 | 256 | 1.7 | 6.1 | 0.00 | 0.00 | 0.00 | 86 | 1011.1 |
| 20260506121936 | 60 | 199 | 6.1 | 8.7 | 0.00 | 0.00 | 0.00 | 86 | 1011.4 |
| 20260506121432 | 60 | 239 | 4.3 | 7.0 | 0.00 | 0.00 | 0.00 | 86 | 1011.3 |
| 20260506120929 | 60 | 190 | 1.7 | 6.1 | 0.00 | 0.00 | 0.00 | 87 | 1011.2 |
| 20260506120426 | 60 | 199 | 2.6 | 7.0 | 0.00 | 0.00 | 0.00 | 86 | 1011.1 |
| 20260506115924 | 61 | 248 | 1.7 | 6.1 | 0.00 | 0.00 | 0.00 | 86 | 1011.2 |
| 20260506115422 | 60 | 200 | 1.7 | 8.7 | 0.00 | 0.00 | 0.00 | 87 | 1011.1 |
| 20260506114920 | 60 | 193 | 3.5 | 7.0 | 0.00 | 0.00 | 0.00 | 87 | 1011.1 |
| 20260506114417 | 60 | 178 | 1.7 | 8.7 | 0.00 | 0.00 | 0.00 | 87 | 1011.0 |
| 20260506113916 | 60 | 187 | 3.5 | 7.0 | 0.00 | 0.00 | 0.00 | 88 | 1011.0 |
| 20260506113413 | 59 | 177 | 2.6 | 8.7 | 0.00 | 0.00 | 0.00 | 88 | 1011.0 |
| 20260506112909 | 59 | 258 | 3.5 | 6.1 | 0.00 | 0.00 | 0.00 | 89 | 1011.0 |
| 20260506112407 | 59 | 204 | 3.5 | 7.8 | 0.00 | 0.00 | 0.00 | 89 | 1011.0 |
| 20260506111904 | 59 | 250 | 1.7 | 6.1 | 0.00 | 0.00 | 0.00 | 90 | 1011.2 |
| 20260506111402 | 58 | 248 | 3.5 | 7.8 | 0.00 | 0.00 | 0.00 | 91 | 1011.1 |
| 20260506110859 | 58 | 251 | 4.3 | 9.6 | 0.00 | 0.00 | 0.00 | 91 | 1011.1 |
| 20260506110356 | 57 | 244 | 4.3 | 7.8 | 0.00 | 0.00 | 0.00 | 92 | 1011.0 |
| 20260506105853 | 57 | 242 | 2.6 | 5.2 | 0.00 | 0.00 | 0.00 | 93 | 1011.3 |
| 20260506105349 | 57 | 209 | 2.6 | 3.5 | 0.00 | 0.00 | 0.00 | 93 | 1011.4 |
| 20260506104847 | 57 | 249 | 3.5 | 6.1 | 0.00 | 0.00 | 0.00 | 93 | 1011.0 |
| 20260506104345 | 57 | 248 | 3.5 | 8.7 | 0.00 | 0.00 | 0.00 | 93 | 1011.0 |
| 20260506103842 | 57 | 188 | 3.5 | 6.1 | 0.00 | 0.00 | 0.00 | 93 | 1011.0 |
| 20260506103339 | 57 | 220 | 2.6 | 6.1 | 0.00 | 0.00 | 0.00 | 93 | 1011.1 |
| 20260506102836 | 57 | 205 | 2.6 | 5.2 | 0.00 | 0.00 | 0.00 | 94 | 1011.1 |
| 20260506102334 | 56 | 198 | 3.5 | 7.0 | 0.00 | 0.00 | 0.00 | 94 | 1011.0 |
| 20260506101831 | 56 | 173 | 2.6 | 7.0 | 0.00 | 0.00 | 0.00 | 94 | 1011.1 |
| 20260506101327 | 56 | 241 | 1.7 | 6.1 | 0.00 | 0.00 | 0.00 | 94 | 1010.9 |
| 20260506100825 | 56 | 190 | 3.5 | 7.0 | 0.00 | 0.00 | 0.00 | 94 | 1011.1 |
| 20260506100324 | 56 | 210 | 1.7 | 6.1 | 0.00 | 0.00 | 0.00 | 94 | 1011.2 |
| 20260506095822 | 56 | 231 | 1.7 | 7.0 | 0.00 | 0.00 | 0.00 | 94 | 1011.0 |
| 20260506095318 | 56 | 167 | 2.6 | 3.5 | 0.00 | 0.00 | 0.00 | 94 | 1011.1 |
| 20260506094815 | 56 | 220 | 2.6 | 6.1 | 0.00 | 0.00 | 0.00 | 94 | 1011.1 |
| 20260506094314 | 56 | 271 | 0.9 | 7.8 | 0.00 | 0.00 | 0.00 | 94 | 1011.0 |
| 20260506093812 | 56 | 167 | 5.2 | 11.3 | 0.00 | 0.00 | 0.00 | 94 | 1010.9 |
| 20260506093308 | 56 | 207 | 3.5 | 5.2 | 0.00 | 0.00 | 0.00 | 94 | 1010.9 |
| 20260506092807 | 56 | 204 | 2.6 | 6.1 | 0.00 | 0.00 | 0.00 | 94 | 1010.9 |
| 20260506092306 | 56 | 229 | 3.5 | 8.7 | 0.00 | 0.00 | 0.00 | 94 | 1011.1 |
| 20260506091801 | 56 | 195 | 2.6 | 6.1 | 0.00 | 0.00 | 0.00 | 94 | 1010.9 |
| 20260506091258 | 56 | 221 | 3.5 | 6.1 | 0.00 | 0.00 | 0.00 | 94 | 1011.1 |
| 20260506090756 | 56 | 240 | 2.6 | 6.1 | 0.00 | 0.00 | 0.00 | 93 | 1011.1 |
| 20260506090253 | 56 | 186 | 2.6 | 5.2 | 0.00 | 0.00 | 0.00 | 93 | 1011.1 |
| 20260506085750 | 56 | 171 | 4.3 | 6.1 | 0.00 | 0.00 | 0.00 | 93 | 1011.2 |
| 20260506085246 | 56 | 179 | 1.7 | 5.2 | 0.00 | 0.00 | 0.00 | 93 | 1011.2 |
| 20260506084743 | 56 | 251 | 1.7 | 6.1 | 0.00 | 0.00 | 0.00 | 93 | 1011.4 |
| 20260506084239 | 56 | 198 | 1.7 | 5.2 | 0.00 | 0.00 | 0.00 | 93 | 1011.2 |
| 20260506083736 | 56 | 244 | 2.6 | 5.2 | 0.00 | 0.00 | 0.00 | 93 | 1011.1 |
| 20260506083234 | 56 | 191 | 0.9 | 3.5 | 0.00 | 0.00 | 0.00 | 92 | 1011.4 |
| 20260506082731 | 56 | 188 | 2.6 | 6.1 | 0.00 | 0.00 | 0.00 | 92 | 1011.4 |
| 20260506082226 | 56 | 235 | 1.7 | 5.2 | 0.00 | 0.00 | 0.00 | 92 | 1011.4 |
| 20260506081724 | 56 | 251 | 2.6 | 6.1 | 0.00 | 0.00 | 0.00 | 92 | 1011.5 |
| 20260506081221 | 56 | 225 | 1.7 | 5.2 | 0.00 | 0.00 | 0.00 | 92 | 1011.4 |
| 20260506080720 | 56 | 242 | 0.0 | 5.2 | 0.00 | 0.00 | 0.00 | 92 | 1011.4 |
| 20260506080216 | 56 | 241 | 1.7 | 5.2 | 0.00 | 0.00 | 0.00 | 92 | 1011.4 |
| 20260506073159 | 57 | 215 | 7.8 | 12.2 | 0.00 | 0.00 | 0.00 | 91 | 1011.6 |
| 20260506072651 | 57 | 214 | 5.2 | 11.3 | 0.00 | 0.00 | 0.00 | 91 | 1011.6 |
| 20260506072149 | 57 | 145 | 3.5 | 6.1 | 0.00 | 0.00 | 0.00 | 91 | 1011.7 |
| 20260506071646 | 57 | 205 | 4.3 | 7.8 | 0.00 | 0.00 | 0.00 | 90 | 1011.6 |
| 20260506071144 | 57 | 194 | 4.3 | 7.8 | 0.00 | 0.00 | 0.00 | 90 | 1011.7 |
| 20260506070640 | 57 | 252 | 2.6 | 6.1 | 0.00 | 0.00 | 0.00 | 90 | 1011.8 |
| 20260506070137 | 57 | 225 | 6.1 | 8.7 | 0.00 | 0.00 | 0.00 | 90 | 1011.7 |
| 20260506062115 | 57 | 215 | 5.2 | 9.6 | 0.00 | 0.00 | 0.00 | 89 | 1011.5 |
| 20260506061610 | 57 | 239 | 5.2 | 8.7 | 0.00 | 0.00 | 0.00 | 89 | 1011.5 |
| 20260506061108 | 57 | 239 | 2.6 | 5.2 | 0.00 | 0.00 | 0.00 | 89 | 1011.4 |
| 20260506060607 | 58 | 187 | 2.6 | 6.1 | 0.00 | 0.00 | 0.00 | 89 | 1011.4 |
| 20260506051035 | 58 | 261 | 4.3 | 6.1 | 0.00 | 0.00 | 0.00 | 86 | 1011.7 |
| 20260506050533 | 58 | 228 | 4.3 | 7.0 | 0.00 | 0.00 | 0.00 | 86 | 1011.7 |
| 20260506045024 | 59 | 296 | 3.5 | 7.8 | 0.00 | 0.00 | 0.00 | 85 | 1011.8 |
| 20260506044521 | 59 | 229 | 2.6 | 8.7 | 0.00 | 0.00 | 0.00 | 85 | 1011.8 |
| 20260506044018 | 59 | 283 | 2.6 | 8.7 | 0.00 | 0.00 | 0.00 | 85 | 1012.0 |
| 20260506043515 | 59 | 252 | 2.6 | 9.6 | 0.00 | 0.00 | 0.00 | 85 | 1012.0 |
| 20260506043014 | 59 | 203 | 1.7 | 13.0 | 0.00 | 0.00 | 0.00 | 84 | 1012.1 |
| 20260506042512 | 59 | 184 | 4.3 | 12.2 | 0.00 | 0.00 | 0.00 | 84 | 1012.1 |
| 20260506042010 | 59 | 238 | 4.3 | 7.0 | 0.00 | 0.00 | 0.00 | 84 | 1011.9 |
| 20260506041508 | 59 | 161 | 3.5 | 7.0 | 0.00 | 0.00 | 0.00 | 84 | 1012.0 |
| 20260506041005 | 60 | 197 | 5.2 | 8.7 | 0.00 | 0.00 | 0.00 | 83 | 1011.9 |
| 20260506040503 | 60 | 204 | 4.3 | 11.3 | 0.00 | 0.00 | 0.00 | 83 | 1012.0 |
| 20260506035958 | 60 | 248 | 4.3 | 7.0 | 0.00 | 0.00 | 0.00 | 82 | 1012.0 |
| 20260506035455 | 60 | 258 | 3.5 | 6.1 | 0.00 | 0.00 | 0.00 | 82 | 1012.0 |
| 20260506034952 | 60 | 220 | 2.6 | 12.2 | 0.00 | 0.00 | 0.00 | 82 | 1011.8 |
| 20260506034450 | 60 | 241 | 1.7 | 8.7 | 0.00 | 0.00 | 0.00 | 82 | 1011.9 |
| 20260506033946 | 60 | 105 | 4.3 | 7.0 | 0.00 | 0.00 | 0.00 | 82 | 1011.9 |
| 20260506033444 | 60 | 220 | 4.3 | 7.8 | 0.00 | 0.00 | 0.00 | 82 | 1011.9 |
| 20260506032940 | 60 | 4 | 3.5 | 6.1 | 0.00 | 0.00 | 0.00 | 82 | 1011.8 |
| 20260506032438 | 60 | 257 | 5.2 | 8.7 | 0.00 | 0.00 | 0.00 | 82 | 1012.0 |
| 20260506031934 | 60 | 226 | 2.6 | 8.7 | 0.00 | 0.00 | 0.00 | 82 | 1011.8 |
| 20260506031431 | 60 | 242 | 5.2 | 7.0 | 0.00 | 0.00 | 0.00 | 82 | 1011.8 |
| 20260506030929 | 60 | 180 | 2.6 | 9.6 | 0.00 | 0.00 | 0.00 | 82 | 1011.8 |
| 20260506030427 | 60 | 175 | 3.5 | 9.6 | 0.00 | 0.00 | 0.00 | 82 | 1012.0 |
| 20260506025923 | 60 | 237 | 5.2 | 7.0 | 0.00 | 0.00 | 0.00 | 82 | 1011.9 |
| 20260506025420 | 61 | 263 | 2.6 | 9.6 | 0.00 | 0.00 | 0.00 | 82 | 1012.1 |
| 20260506024917 | 61 | 167 | 5.2 | 13.9 | 0.00 | 0.00 | 0.00 | 82 | 1012.0 |
| 20260506024414 | 61 | 246 | 4.3 | 12.2 | 0.00 | 0.00 | 0.00 | 81 | 1011.8 |
| 20260506023910 | 61 | 321 | 4.3 | 9.6 | 0.00 | 0.00 | 0.00 | 81 | 1011.7 |
| 20260506023407 | 61 | 297 | 8.7 | 12.2 | 0.00 | 0.00 | 0.00 | 81 | 1011.6 |
| 20260506022904 | 61 | 142 | 6.1 | 12.2 | 0.00 | 0.00 | 0.00 | 81 | 1011.8 |
| 20260506022401 | 61 | 202 | 4.3 | 7.8 | 0.00 | 0.00 | 0.00 | 81 | 1011.7 |
| 20260506021859 | 61 | 207 | 3.5 | 12.2 | 0.00 | 0.00 | 0.00 | 80 | 1012.0 |
| 20260506021356 | 61 | 206 | 5.2 | 14.8 | 0.00 | 0.00 | 0.00 | 80 | 1011.9 |
| 20260506020853 | 61 | 208 | 3.5 | 11.3 | 0.00 | 0.00 | 0.00 | 79 | 1011.9 |
| 20260506020351 | 61 | 240 | 3.5 | 8.7 | 0.00 | 0.00 | 0.00 | 79 | 1011.8 |
| 20260506015848 | 61 | 197 | 7.0 | 8.7 | 0.00 | 0.00 | 0.00 | 78 | 1011.7 |
| 20260506015345 | 61 | 167 | 4.3 | 7.8 | 0.00 | 0.00 | 0.00 | 77 | 1011.9 |
| 20260506014842 | 62 | 302 | 3.5 | 13.9 | 0.00 | 0.00 | 0.00 | 76 | 1011.7 |
| 20260506014339 | 62 | 191 | 4.3 | 8.7 | 0.00 | 0.00 | 0.00 | 76 | 1011.8 |
| 20260506013835 | 62 | 170 | 3.5 | 9.6 | 0.00 | 0.00 | 0.00 | 75 | 1011.6 |
| 20260506013333 | 62 | 236 | 5.2 | 7.0 | 0.00 | 0.00 | 0.00 | 75 | 1011.7 |
| 20260506012829 | 62 | 194 | 3.5 | 13.9 | 0.00 | 0.00 | 0.00 | 74 | 1011.4 |
| 20260506012326 | 63 | 262 | 7.0 | 19.1 | 0.00 | 0.00 | 0.00 | 74 | 1011.5 |
| 20260506011824 | 63 | 179 | 7.0 | 13.9 | 0.00 | 0.00 | 0.00 | 73 | 1011.4 |
| 20260506011320 | 63 | 174 | 5.2 | 12.2 | 0.00 | 0.00 | 0.00 | 73 | 1011.2 |
| 20260506010818 | 63 | 253 | 3.5 | 16.5 | 0.00 | 0.00 | 0.00 | 72 | 1011.2 |
| 20260506010315 | 63 | 273 | 2.6 | 13.0 | 0.00 | 0.00 | 0.00 | 72 | 1011.0 |
| 20260506005812 | 63 | 215 | 3.5 | 7.8 | 0.00 | 0.00 | 0.00 | 72 | 1011.1 |
| 20260506005309 | 63 | 208 | 4.3 | 8.7 | 0.00 | 0.00 | 0.00 | 72 | 1011.1 |
| 20260506004805 | 63 | 230 | 3.5 | 9.6 | 0.00 | 0.00 | 0.00 | 72 | 1011.0 |
| 20260506004303 | 63 | 244 | 4.3 | 11.3 | 0.00 | 0.00 | 0.00 | 71 | 1011.1 |
| 20260506003759 | 63 | 226 | 3.5 | 12.2 | 0.00 | 0.00 | 0.00 | 72 | 1010.9 |
| 20260506003256 | 63 | 240 | 2.6 | 11.3 | 0.00 | 0.00 | 0.00 | 72 | 1010.9 |
| 20260506002751 | 63 | 207 | 8.7 | 11.3 | 0.00 | 0.00 | 0.00 | 72 | 1011.1 |
| 20260506002248 | 63 | 165 | 4.3 | 7.0 | 0.00 | 0.00 | 0.00 | 72 | 1010.7 |
| 20260506001743 | 63 | 218 | 4.3 | 11.3 | 0.00 | 0.00 | 0.00 | 72 | 1010.7 |
| 20260506001241 | 63 | 247 | 5.2 | 9.6 | 0.00 | 0.00 | 0.00 | 72 | 1010.8 |
| 20260506000738 | 63 | 237 | 5.2 | 12.2 | 0.00 | 0.00 | 0.00 | 72 | 1010.5 |
| 20260506000235 | 63 | 235 | 6.1 | 13.0 | 0.00 | 0.00 | 0.00 | 72 | 1010.4 |
| 20260505235732 | 63 | 177 | 6.1 | 12.2 | 0.00 | 0.00 | 0.00 | 72 | 1010.6 |
| 20260505235230 | 63 | 239 | 3.5 | 7.8 | 0.00 | 0.00 | 0.00 | 72 | 1010.5 |
| 20260505234727 | 63 | 285 | 6.1 | 11.3 | 0.00 | 0.00 | 0.00 | 72 | 1010.4 |
| 20260505234224 | 63 | 230 | 5.2 | 11.3 | 0.00 | 0.00 | 0.00 | 72 | 1010.3 |
| 20260505233720 | 63 | 171 | 5.2 | 12.2 | 0.00 | 0.00 | 0.00 | 72 | 1010.2 |
| 20260505233219 | 63 | 202 | 6.1 | 8.7 | 0.00 | 0.00 | 0.00 | 72 | 1010.4 |
| 20260505232715 | 63 | 92 | 4.3 | 11.3 | 0.00 | 0.00 | 0.00 | 71 | 1010.0 |
| 20260505232213 | 64 | 263 | 3.5 | 12.2 | 0.00 | 0.00 | 0.00 | 70 | 1009.9 |
| 20260505231709 | 64 | 235 | 1.7 | 8.7 | 0.00 | 0.00 | 0.00 | 70 | 1010.0 |
| 20260505231209 | 64 | 245 | 7.8 | 13.0 | 0.00 | 0.00 | 0.00 | 69 | 1009.9 |
| 20260505230706 | 65 | 220 | 3.5 | 7.8 | 0.00 | 0.00 | 0.00 | 69 | 1009.6 |
| 20260505230203 | 65 | 221 | 3.5 | 11.3 | 0.00 | 0.00 | 0.00 | 68 | 1009.7 |
| 20260505225659 | 65 | 274 | 3.5 | 12.2 | 0.00 | 0.00 | 0.00 | 67 | 1009.7 |
| 20260505225156 | 65 | 219 | 4.3 | 7.0 | 0.00 | 0.00 | 0.00 | 67 | 1009.8 |
| 20260505224651 | 65 | 234 | 4.3 | 12.2 | 0.00 | 0.00 | 0.00 | 67 | 1009.9 |
| 20260505224150 | 65 | 243 | 3.5 | 9.6 | 0.00 | 0.00 | 0.00 | 68 | 1009.8 |
| 20260505223647 | 65 | 187 | 4.3 | 6.1 | 0.00 | 0.00 | 0.00 | 68 | 1009.6 |
| 20260505223142 | 66 | 262 | 3.5 | 8.7 | 0.00 | 0.00 | 0.00 | 67 | 1009.7 |
| 20260505222638 | 66 | 218 | 3.5 | 7.8 | 0.00 | 0.00 | 0.00 | 66 | 1009.8 |
| 20260505222135 | 66 | 240 | 2.6 | 3.5 | 0.00 | 0.00 | 0.00 | 66 | 1009.8 |
| 20260505221632 | 66 | 213 | 3.5 | 13.0 | 0.00 | 0.00 | 0.00 | 66 | 1009.6 |
| 20260505221128 | 66 | 217 | 1.7 | 9.6 | 0.00 | 0.00 | 0.00 | 66 | 1009.8 |
| 20260505220626 | 66 | 227 | 7.8 | 9.6 | 0.00 | 0.00 | 0.00 | 66 | 1009.4 |
| 20260505220124 | 66 | 210 | 5.2 | 15.6 | 0.00 | 0.00 | 0.00 | 66 | 1009.4 |
| 20260505215621 | 66 | 205 | 7.8 | 11.3 | 0.00 | 0.00 | 0.00 | 65 | 1009.6 |
| 20260505215119 | 67 | 215 | 3.5 | 13.0 | 0.00 | 0.00 | 0.00 | 65 | 1009.7 |
| 20260505214617 | 67 | 247 | 6.1 | 9.6 | 0.00 | 0.00 | 0.00 | 64 | 1009.5 |
| 20260505214114 | 67 | 248 | 1.7 | 12.2 | 0.00 | 0.00 | 0.00 | 65 | 1009.6 |
| 20260505213612 | 67 | 193 | 6.1 | 11.3 | 0.00 | 0.00 | 0.00 | 65 | 1009.3 |
| 20260505213108 | 67 | 160 | 7.0 | 8.7 | 0.00 | 0.00 | 0.00 | 64 | 1009.5 |
| 20260505212604 | 67 | 252 | 5.2 | 11.3 | 0.00 | 0.00 | 0.00 | 65 | 1009.3 |
| 20260505212102 | 67 | 158 | 3.5 | 8.7 | 0.00 | 0.00 | 0.00 | 65 | 1009.3 |
| 20260505211558 | 67 | 218 | 4.3 | 8.7 | 0.00 | 0.00 | 0.00 | 65 | 1009.2 |
| 20260505211056 | 67 | 195 | 4.3 | 7.0 | 0.00 | 0.00 | 0.00 | 65 | 1009.2 |
| 20260505210552 | 67 | 204 | 5.2 | 13.0 | 0.00 | 0.00 | 0.00 | 65 | 1009.3 |
| 20260505210049 | 68 | 159 | 2.6 | 9.6 | 0.00 | 0.00 | 0.00 | 65 | 1009.2 |
| 20260505205547 | 68 | 193 | 3.5 | 7.0 | 0.00 | 0.00 | 0.00 | 64 | 1009.0 |
| 20260505205044 | 68 | 197 | 2.6 | 8.7 | 0.00 | 0.00 | 0.00 | 65 | 1009.2 |
| 20260505204542 | 68 | 219 | 1.7 | 7.8 | 0.00 | 0.00 | 0.00 | 65 | 1009.3 |
| 20260505204039 | 68 | 222 | 4.3 | 9.6 | 0.00 | 0.00 | 0.00 | 65 | 1009.2 |
| 20260505203535 | 68 | 197 | 6.1 | 8.7 | 0.00 | 0.00 | 0.00 | 65 | 1009.1 |
| 20260505203033 | 68 | 231 | 5.2 | 7.8 | 0.00 | 0.00 | 0.00 | 64 | 1009.3 |
| 20260505202528 | 68 | 207 | 2.6 | 12.2 | 0.00 | 0.00 | 0.00 | 65 | 1009.3 |
| 20260505202024 | 68 | 215 | 3.5 | 5.2 | 0.00 | 0.00 | 0.00 | 64 | 1009.5 |
| 20260505201522 | 69 | 151 | 2.6 | 6.1 | 0.00 | 0.00 | 0.00 | 64 | 1009.4 |
| 20260505201019 | 69 | 244 | 0.9 | 7.0 | 0.00 | 0.00 | 0.00 | 65 | 1009.4 |
| 20260505200517 | 69 | 212 | 0.9 | 3.5 | 0.00 | 0.00 | 0.00 | 64 | 1009.4 |
| 20260505200014 | 68 | 243 | 5.2 | 8.7 | 0.00 | 0.00 | 0.00 | 64 | 1009.5 |
| 20260505195509 | 69 | 164 | 1.7 | 11.3 | 0.00 | 0.00 | 0.00 | 64 | 1009.6 |
| 20260505195007 | 69 | 245 | 3.5 | 11.3 | 0.00 | 0.00 | 0.00 | 64 | 1009.6 |
| 20260505194504 | 69 | 219 | 3.5 | 6.1 | 0.00 | 0.00 | 0.00 | 63 | 1009.8 |
| 20260505194004 | 69 | 267 | 2.6 | 9.6 | 0.00 | 0.00 | 0.00 | 64 | 1009.6 |
| 20260505193502 | 69 | 203 | 5.2 | 12.2 | 0.00 | 0.00 | 0.00 | 63 | 1009.7 |
| 20260505192959 | 69 | 190 | 6.1 | 7.0 | 0.00 | 0.00 | 0.00 | 63 | 1009.9 |
| 20260505192458 | 69 | 208 | 3.5 | 8.7 | 0.00 | 0.00 | 0.00 | 63 | 1010.1 |
| 20260505191955 | 69 | 197 | 5.2 | 8.7 | 0.00 | 0.00 | 0.00 | 63 | 1010.1 |
| 20260505191453 | 70 | 190 | 5.2 | 7.0 | 0.00 | 0.00 | 0.00 | 62 | 1010.2 |
| 20260505190950 | 69 | 187 | 1.7 | 8.7 | 0.00 | 0.00 | 0.00 | 64 | 1010.1 |
| 20260505190445 | 69 | 189 | 7.0 | 9.6 | 0.00 | 0.00 | 0.00 | 64 | 1010.3 |
| 20260505185941 | 69 | 229 | 2.6 | 6.1 | 0.00 | 0.00 | 0.00 | 65 | 1010.5 |
| 20260505185438 | 69 | 204 | 2.6 | 7.8 | 0.00 | 0.00 | 0.00 | 66 | 1010.3 |
| 20260505184934 | 70 | 214 | 1.7 | 6.1 | 0.00 | 0.00 | 0.00 | 65 | 1010.6 |
| 20260505184431 | 69 | 238 | 1.7 | 5.2 | 0.00 | 0.00 | 0.00 | 64 | 1010.5 |
| 20260505183928 | 70 | 213 | 3.5 | 9.6 | 0.00 | 0.00 | 0.00 | 64 | 1010.5 |
| 20260505183425 | 70 | 297 | 4.3 | 7.8 | 0.00 | 0.00 | 0.00 | 63 | 1010.7 |
| 20260505182922 | 70 | 170 | 3.5 | 6.1 | 0.00 | 0.00 | 0.00 | 63 | 1010.6 |
| 20260505182419 | 70 | 226 | 1.7 | 6.1 | 0.00 | 0.00 | 0.00 | 64 | 1010.5 |
| 20260505181915 | 70 | 219 | 1.7 | 7.0 | 0.00 | 0.00 | 0.00 | 64 | 1010.7 |
| 20260505181412 | 70 | 196 | 1.7 | 2.6 | 0.00 | 0.00 | 0.00 | 65 | 1010.5 |
| 20260505180909 | 69 | 229 | 2.6 | 3.5 | 0.00 | 0.00 | 0.00 | 64 | 1010.8 |
| 20260505180406 | 70 | 250 | 2.6 | 7.8 | 0.00 | 0.00 | 0.00 | 66 | 1010.9 |
| 20260505175902 | 71 | 239 | 1.7 | 6.1 | 0.00 | 0.00 | 0.00 | 64 | 1010.8 |
| 20260505175358 | 69 | 225 | 0.9 | 6.1 | 0.00 | 0.00 | 0.00 | 66 | 1010.8 |
| 20260505174855 | 69 | 173 | 7.0 | 8.7 | 0.00 | 0.00 | 0.00 | 65 | 1011.0 |
| 20260505174353 | 68 | 187 | 4.3 | 7.0 | 0.00 | 0.00 | 0.00 | 67 | 1010.9 |
| 20260505173848 | 68 | 251 | 6.1 | 7.8 | 0.00 | 0.00 | 0.00 | 66 | 1010.8 |
| 20260505173345 | 68 | 216 | 3.5 | 7.8 | 0.00 | 0.00 | 0.00 | 67 | 1010.9 |
| 20260505172842 | 68 | 201 | 5.2 | 6.1 | 0.00 | 0.00 | 0.00 | 67 | 1011.0 |
| 20260505172340 | 69 | 183 | 1.7 | 6.1 | 0.00 | 0.00 | 0.00 | 67 | 1011.0 |
| 20260505171839 | 68 | 222 | 0.9 | 7.8 | 0.00 | 0.00 | 0.00 | 69 | 1011.0 |
| 20260505171337 | 69 | 244 | 5.2 | 7.8 | 0.00 | 0.00 | 0.00 | 66 | 1011.0 |
| 20260505170833 | 69 | 252 | 4.3 | 7.0 | 0.00 | 0.00 | 0.00 | 65 | 1011.0 |
| 20260505170330 | 70 | 210 | 1.7 | 7.8 | 0.00 | 0.00 | 0.00 | 65 | 1011.0 |
| 20260505165825 | 71 | 259 | 0.0 | 6.1 | 0.00 | 0.00 | 0.00 | 64 | 1011.1 |
| 20260505165321 | 70 | 217 | 1.7 | 3.5 | 0.00 | 0.00 | 0.00 | 65 | 1011.2 |
| 20260505164816 | 70 | 171 | 2.6 | 7.8 | 0.00 | 0.00 | 0.00 | 66 | 1011.2 |
| 20260505164314 | 70 | 246 | 0.9 | 3.5 | 0.00 | 0.00 | 0.00 | 65 | 1011.2 |
| 20260505163812 | 70 | 183 | 0.9 | 3.5 | 0.00 | 0.00 | 0.00 | 67 | 1011.3 |
| 20260505163311 | 69 | 238 | 3.5 | 6.1 | 0.00 | 0.00 | 0.00 | 65 | 1011.4 |
| 20260505162808 | 68 | 274 | 3.5 | 5.2 | 0.00 | 0.00 | 0.00 | 68 | 1011.4 |